Change the Weather History Date:

Tuesday, October 22, 2013

  Actual Average (KBIS) Record (KBIS)
Temperature  
Mean Temperature 34 °F 42 °F  
Max Temperature 35 °F 55 °F 81 °F (1963)
Min Temperature 32 °F 30 °F 8 °F (1936)
Degree Days  
Heating Degree Days 32 23  
Month to date heating degree days 398  
Since 1 July heating degree days 684  
Cooling Degree Days 0 0  
Month to date cooling degree days 0  
Year to date cooling degree days 519  
Moisture  
Dew Point 31 °F    
Average Humidity 93    
Maximum Humidity 100    
Minimum Humidity 75    
Precipitation  
Precipitation 0.00 in 0.04 in 0.43 in (1957)
Month to date precipitation 0.93  
Year to date precipitation 16.33  
Snow  
Snow 0.00 in 0.10 in 1.00 in (1950)
Month to date snowfall 1.0  
Since 1 July snowfall 1.2  
Since 1 September snowfall 1.2  
Snow Depth -    
Sea Level Pressure  
Sea Level Pressure 30.05 in    
Wind  
Wind Speed 5 mph (NNE)    
Max Wind Speed 9 mph    
Max Gust Speed -    
Visibility 8 miles    
Events Rain    
T = Trace of Precipitation, MM = Missing Value Source: NWS Daily Summary

Daily Weather History Graph

Daily Weather History Graph

Search for Another Location

Airport or City:

Trip Planner

Search our weather history database for the weather conditions in past years. The results will help you decide how hot, cold, wet, or windy it might be!

Date:

Astronomy

Oct. 22, 2013 Rise Set
Actual Time 8:11 AM CDT 6:43 PM CDT
Civil Twilight 7:40 AM CDT 7:14 PM CDT
Nautical Twilight 7:05 AM CDT 7:49 PM CDT
Astronomical Twilight 6:30 AM CDT 8:24 PM CDT
Moon 9:15 PM CDT (10/22) 11:51 AM CDT (10/22)
Length of Visible Light 11h 33m
Length of Day
10h 31m
Waning Gibbous, 86% of the Moon is Illuminated
Oct 22
Waning Gibbous
Oct 26
Last Quarter
Nov 3
New
Nov 9
First Quarter
Nov 17
Full

Hourly Weather History & Observations

Time (CDT) Temp. Windchill Dew Point Humidity Pressure Visibility Wind Dir Wind Speed Gust Speed Precip Events Conditions
12:15 AM 32.0 °F 28.7 °F 32.0 °F 100% 29.95 in 5.0 mi East 3.5 mph - N/A   Overcast
12:35 AM 32.0 °F 27.5 °F 32.0 °F 100% 29.95 in 5.0 mi East 4.6 mph - N/A   Overcast
12:55 AM 32.0 °F 28.7 °F 32.0 °F 100% 29.95 in 3.0 mi East 3.5 mph - N/A   Overcast
1:15 AM 32.0 °F 26.4 °F 32.0 °F 100% 29.95 in 2.5 mi East 5.8 mph - N/A   Overcast
1:35 AM 32.0 °F 28.7 °F 32.0 °F 100% 29.96 in 1.8 mi East 3.5 mph - N/A   Overcast
1:55 AM 32.0 °F 26.4 °F 32.0 °F 100% 29.95 in 2.5 mi ESE 5.8 mph - N/A   Overcast
2:15 AM 32.0 °F 27.5 °F 32.0 °F 100% 29.96 in 2.5 mi East 4.6 mph - N/A Rain Light Rain
2:35 AM 32.0 °F 27.5 °F 32.0 °F 100% 29.97 in 1.2 mi NE 4.6 mph - N/A Rain Light Rain
2:55 AM 32.0 °F 26.4 °F 32.0 °F 100% 29.98 in 1.0 mi NE 5.8 mph - N/A Rain Light Rain
3:15 AM 32.0 °F 26.4 °F 32.0 °F 100% 29.99 in 1.8 mi ENE 5.8 mph - N/A Rain Light Rain
3:35 AM 32.0 °F 25.6 °F 32.0 °F 100% 29.99 in 2.0 mi ENE 6.9 mph - N/A Rain Light Rain
3:55 AM 32.0 °F 24.8 °F 32.0 °F 100% 29.99 in 3.0 mi ENE 8.1 mph - N/A   Overcast
4:15 AM 32.0 °F 24.2 °F 32.0 °F 100% 29.98 in 4.0 mi East 9.2 mph - N/A   Overcast
4:35 AM 32.0 °F 24.8 °F 32.0 °F 100% 29.98 in 5.0 mi ESE 8.1 mph - N/A   Overcast
4:55 AM 32.0 °F 27.5 °F 30.2 °F 93% 29.99 in 9.0 mi East 4.6 mph - N/A   Overcast
5:15 AM 32.0 °F 24.8 °F 32.0 °F 100% 29.99 in 10.0 mi East 8.1 mph - N/A   Overcast
5:35 AM 32.0 °F 27.5 °F 30.2 °F 93% 29.99 in 10.0 mi East 4.6 mph - N/A   Overcast
5:55 AM 32.0 °F 28.7 °F 30.2 °F 93% 30.00 in 10.0 mi East 3.5 mph - N/A   Overcast
6:15 AM 32.0 °F 28.7 °F 30.2 °F 93% 30.00 in 10.0 mi ENE 3.5 mph - N/A   Overcast
6:35 AM 32.0 °F - 30.2 °F 93% 30.01 in 10.0 mi Calm Calm - N/A   Overcast
6:55 AM 32.0 °F - 30.2 °F 93% 30.02 in 10.0 mi Calm Calm - N/A   Overcast
7:15 AM 32.0 °F 27.5 °F 32.0 °F 100% 30.02 in 10.0 mi ENE 4.6 mph - N/A   Overcast
7:35 AM 32.0 °F 27.5 °F 32.0 °F 100% 30.03 in 10.0 mi NE 4.6 mph - N/A   Overcast
7:55 AM 32.0 °F 28.7 °F 32.0 °F 100% 30.04 in 10.0 mi ENE 3.5 mph - N/A   Overcast
8:15 AM 32.0 °F 27.5 °F 32.0 °F 100% 30.04 in 10.0 mi ENE 4.6 mph - N/A   Overcast
8:35 AM 32.0 °F 27.5 °F 30.2 °F 93% 30.05 in 10.0 mi NE 4.6 mph - N/A   Overcast
8:55 AM 32.0 °F 27.5 °F 30.2 °F 93% 30.06 in 10.0 mi NE 4.6 mph - N/A   Overcast
9:15 AM 32.0 °F 27.5 °F 30.2 °F 93% 30.06 in 10.0 mi NE 4.6 mph - N/A   Overcast
9:35 AM 32.0 °F 27.5 °F 30.2 °F 93% 30.07 in 7.0 mi NE 4.6 mph - N/A   Overcast
9:55 AM 32.0 °F 28.7 °F 30.2 °F 93% 30.08 in 10.0 mi NNE 3.5 mph - N/A   Overcast
10:15 AM 32.0 °F 27.5 °F 30.2 °F 93% 30.09 in 10.0 mi North 4.6 mph - N/A   Overcast
10:35 AM 32.0 °F 27.5 °F 30.2 °F 93% 30.09 in 10.0 mi North 4.6 mph - N/A   Mostly Cloudy
10:55 AM 32.0 °F 27.5 °F 30.2 °F 93% 30.10 in 10.0 mi NNE 4.6 mph - N/A   Mostly Cloudy
11:15 AM 32.0 °F 27.5 °F 32.0 °F 100% 30.10 in 9.0 mi North 4.6 mph - N/A   Overcast
11:35 AM 32.0 °F 27.5 °F 32.0 °F 100% 30.10 in 10.0 mi North 4.6 mph - N/A   Overcast
11:55 AM 32.0 °F 27.5 °F 32.0 °F 100% 30.10 in 10.0 mi North 4.6 mph - N/A   Overcast
12:15 PM 32.0 °F 28.7 °F 32.0 °F 100% 30.09 in 8.0 mi North 3.5 mph - N/A   Overcast
12:35 PM 32.0 °F 27.5 °F 32.0 °F 100% 30.09 in 10.0 mi NNE 4.6 mph - N/A   Overcast
12:55 PM 32.0 °F 28.7 °F 32.0 °F 100% 30.10 in 10.0 mi North 3.5 mph - N/A   Overcast
1:15 PM 32.0 °F 26.4 °F 32.0 °F 100% 30.10 in 10.0 mi NNW 5.8 mph - N/A   Overcast
1:35 PM 32.0 °F 27.5 °F 32.0 °F 100% 30.10 in 10.0 mi NNW 4.6 mph - N/A   Overcast
1:55 PM 33.8 °F 28.6 °F 32.0 °F 93% 30.10 in 10.0 mi NNW 5.8 mph - N/A   Overcast
2:15 PM 33.8 °F 27.0 °F 32.0 °F 93% 30.10 in 10.0 mi NNW 8.1 mph - N/A   Overcast
2:35 PM 33.8 °F 30.8 °F 32.0 °F 93% 30.10 in 10.0 mi NW 3.5 mph - N/A   Overcast
2:55 PM 35.6 °F 30.7 °F 32.0 °F 87% 30.09 in 10.0 mi NW 5.8 mph - N/A   Overcast
3:15 PM 35.6 °F 30.7 °F 32.0 °F 87% 30.09 in 10.0 mi NW 5.8 mph - N/A   Overcast
3:35 PM 35.6 °F 30.7 °F 32.0 °F 87% 30.09 in 10.0 mi NNW 5.8 mph - N/A   Overcast
3:55 PM 35.6 °F 30.7 °F 30.2 °F 81% 30.09 in 10.0 mi NW 5.8 mph - N/A   Overcast
4:15 PM 35.6 °F 29.9 °F 30.2 °F 81% 30.09 in 10.0 mi NW 6.9 mph - N/A   Overcast
4:35 PM 35.6 °F 29.9 °F 30.2 °F 81% 30.09 in 10.0 mi NNW 6.9 mph - N/A   Overcast
4:55 PM 35.6 °F 28.6 °F 28.4 °F 75% 30.09 in 10.0 mi NW 9.2 mph - N/A   Overcast
5:15 PM 35.6 °F 30.7 °F 30.2 °F 81% 30.09 in 10.0 mi NW 5.8 mph - N/A   Overcast
5:35 PM 35.6 °F 30.7 °F 30.2 °F 81% 30.09 in 10.0 mi NW 5.8 mph - N/A   Overcast
5:55 PM 35.6 °F 28.6 °F 30.2 °F 81% 30.09 in 10.0 mi NW 9.2 mph - N/A   Overcast
6:15 PM 35.6 °F 29.9 °F 32.0 °F 87% 30.09 in 10.0 mi WNW 6.9 mph - N/A   Overcast
6:35 PM 35.6 °F 29.9 °F 30.2 °F 81% 30.08 in 10.0 mi WNW 6.9 mph - N/A   Overcast
6:55 PM 35.6 °F 30.7 °F 32.0 °F 87% 30.08 in 10.0 mi WNW 5.8 mph - N/A   Overcast
7:15 PM 35.6 °F 30.7 °F 30.2 °F 81% 30.09 in 10.0 mi NW 5.8 mph - N/A   Overcast
7:35 PM 35.6 °F 31.7 °F 30.2 °F 81% 30.09 in 10.0 mi NW 4.6 mph - N/A   Mostly Cloudy
7:55 PM 33.8 °F 30.8 °F 30.2 °F 87% 30.07 in 7.0 mi WNW 3.5 mph - N/A   Overcast
8:15 PM 33.8 °F - 32.0 °F 93% 30.07 in 6.0 mi Calm Calm - N/A   Overcast
8:35 PM 33.8 °F - 30.2 °F 87% 30.06 in 5.0 mi Calm Calm - N/A   Overcast
8:55 PM 32.0 °F - 32.0 °F 100% 30.07 in 5.0 mi Calm Calm - N/A   Overcast
9:35 PM 32.0 °F - 30.2 °F 93% 30.06 in 4.0 mi Calm Calm - N/A   Overcast
10:15 PM 32.0 °F 28.7 °F 30.2 °F 93% 30.06 in 5.0 mi SW 3.5 mph - N/A   Overcast
10:35 PM 32.0 °F 28.7 °F 30.2 °F 93% 30.06 in 5.0 mi SW 3.5 mph - N/A   Overcast
10:55 PM 32.0 °F 27.5 °F 30.2 °F 93% 30.06 in 5.0 mi SW 4.6 mph - N/A   Overcast
11:15 PM 32.0 °F 28.7 °F 30.2 °F 93% 30.05 in 5.0 mi SSW 3.5 mph - N/A   Overcast
11:35 PM 32.0 °F 28.7 °F 30.2 °F 93% 30.06 in 5.0 mi SW 3.5 mph - N/A   Overcast
11:55 PM 32.0 °F - 30.2 °F 93% 30.05 in 5.0 mi Calm Calm - N/A   Overcast